Weather History for Afton Municipal Airport, WY

Change the Weather History Date:

Friday, November 15, 2013

  Actual Average Record
Temperature  
Mean Temperature 30 °F -  
Max Temperature 33 °F 39 °F - (-1)
Min Temperature 26 °F 12 °F - (-1)
Degree Days  
Heating Degree Days 36    
Moisture  
Dew Point 24 °F    
Average Humidity 77    
Maximum Humidity 100    
Minimum Humidity 60    
Precipitation  
Precipitation 0.00 in - - ()
Sea Level Pressure  
Sea Level Pressure 29.70 in    
Wind  
Wind Speed 2 mph ()    
Max Wind Speed 9 mph    
Max Gust Speed 10 mph    
Visibility 8.1 miles    
Events Snow    
Averages and records for this station are not official NWS values.
T = Trace of Precipitation, MM = Missing Value Source: Averaged Metar Reports

Daily Weather History Graph

Daily Weather History Graph

Search for Another Location

Airport:

Trip Planner

Search our weather history database for the weather conditions in past years. The results will help you decide how hot, cold, wet, or windy it might be!

Date:

Astronomy

Nov. 15, 2013 Rise Set
Actual Time 7:15 AM MST 5:00 PM MST
Civil Twilight 6:45 AM MST 5:31 PM MST
Nautical Twilight 6:11 AM MST 6:05 PM MST
Astronomical Twilight 5:37 AM MST 6:38 PM MST
Moon 4:01 PM MST (11/15) 5:13 AM MST (11/15)
Length of Visible Light 10h 45m
Length of Day
9h 44m
Waxing Gibbous, 97% of the Moon is Illuminated
Nov 15
Waxing Gibbous
Nov 17
Full
Nov 25
Last Quarter
Dec 2
New
Dec 9
First Quarter

Hourly Weather History & Observations

Time (MST) Temp. Windchill Dew Point Humidity Pressure Visibility Wind Dir Wind Speed Gust Speed Precip Events Conditions
12:15 AM 30.2 °F - 21.2 °F 69% 29.76 in 10.0 mi Calm Calm - N/A   Clear
12:35 AM 30.2 °F - 21.2 °F 69% 29.76 in 10.0 mi Calm Calm - N/A   Scattered Clouds
12:55 AM 30.2 °F - 21.2 °F 69% 29.76 in 10.0 mi Calm Calm - N/A   Scattered Clouds
1:15 AM 30.2 °F 22.6 °F 21.2 °F 69% 29.76 in 10.0 mi WNW 8.1 mph - N/A   Scattered Clouds
1:35 AM 30.2 °F 25.4 °F 23.0 °F 75% 29.77 in 10.0 mi WSW 4.6 mph - N/A   Clear
1:55 AM 30.2 °F - 23.0 °F 75% 29.77 in 10.0 mi Calm Calm - N/A   Clear
2:15 AM 30.2 °F 24.3 °F 21.2 °F 69% 29.77 in 10.0 mi ENE 5.8 mph - N/A   Scattered Clouds
2:35 AM 32.0 °F 27.5 °F 23.0 °F 69% 29.77 in 10.0 mi NNE 4.6 mph - N/A   Mostly Cloudy
2:55 AM 32.0 °F 28.7 °F 26.6 °F 80% 29.77 in 4.0 mi NE 3.5 mph - N/A Snow Light Snow
3:15 AM 32.0 °F 28.7 °F 28.4 °F 87% 29.77 in 3.0 mi ENE 3.5 mph - N/A Snow Light Snow
3:35 AM 32.0 °F 28.7 °F 30.2 °F 93% 29.76 in 1.5 mi NE 3.5 mph - N/A Snow Light Snow
3:55 AM 30.2 °F 26.7 °F 30.2 °F 100% 29.75 in 4.0 mi North 3.5 mph - N/A Snow Light Snow
4:15 AM 30.2 °F 25.4 °F 30.2 °F 100% 29.75 in 3.0 mi WNW 4.6 mph - N/A Snow Light Snow
4:35 AM 30.2 °F - 28.4 °F 93% 29.75 in 3.0 mi Calm Calm - N/A Snow Light Snow
4:55 AM 30.2 °F - 28.4 °F 93% 29.74 in 1.8 mi Calm Calm - N/A Snow Light Snow
5:15 AM 30.2 °F - 28.4 °F 93% 29.74 in 2.0 mi Calm Calm - N/A Snow Light Snow
5:35 AM 30.2 °F - 28.4 °F 93% 29.73 in 2.0 mi Calm Calm - N/A Snow Light Snow
5:55 AM 28.4 °F 24.6 °F 28.4 °F 100% 29.73 in 3.0 mi NNW 3.5 mph - N/A Snow Light Snow
6:15 AM 28.4 °F - 28.4 °F 100% 29.73 in 5.0 mi Calm Calm - N/A Snow Light Snow
6:35 AM 28.4 °F - 28.4 °F 100% 29.73 in 4.0 mi Calm Calm - N/A Snow Light Snow
6:55 AM 28.4 °F - 28.4 °F 100% 29.73 in 3.0 mi Calm Calm - N/A Snow Light Snow
7:15 AM 30.2 °F - 28.4 °F 93% 29.72 in 3.0 mi Calm Calm - N/A Snow Light Snow
7:35 AM 30.2 °F - 28.4 °F 93% 29.72 in 1.8 mi Calm Calm - N/A Snow Light Snow
7:55 AM 28.4 °F - 28.4 °F 100% 29.72 in 2.0 mi Calm Calm - N/A   Overcast
8:15 AM 28.4 °F - 28.4 °F 100% 29.73 in 2.5 mi Calm Calm - N/A Snow Light Snow
8:35 AM 28.4 °F - 28.4 °F 100% 29.73 in 3.0 mi Calm Calm - N/A Snow Light Snow
8:55 AM 30.2 °F 26.7 °F 28.4 °F 93% 29.73 in 5.0 mi NE 3.5 mph - N/A   Mostly Cloudy
9:15 AM 30.2 °F 26.7 °F 28.4 °F 93% 29.73 in 7.0 mi NE 3.5 mph - N/A   Mostly Cloudy
9:35 AM 30.2 °F 26.7 °F 26.6 °F 86% 29.73 in 10.0 mi NNE 3.5 mph - N/A   Mostly Cloudy
9:55 AM 32.0 °F 27.5 °F 26.6 °F 80% 29.74 in 10.0 mi NNE 4.6 mph - N/A   Mostly Cloudy
10:15 AM 32.0 °F 27.5 °F 26.6 °F 80% 29.73 in 10.0 mi NNE 4.6 mph - N/A   Overcast
10:35 AM 32.0 °F 27.5 °F 26.6 °F 80% 29.73 in 7.0 mi North 4.6 mph - N/A   Mostly Cloudy
10:55 AM 32.0 °F - 26.6 °F 80% 29.73 in 10.0 mi Calm Calm - N/A   Scattered Clouds
11:15 AM 32.0 °F 28.7 °F 24.8 °F 75% 29.72 in 10.0 mi NNW 3.5 mph - N/A   Scattered Clouds
11:35 AM 33.8 °F - 26.6 °F 75% 29.71 in 10.0 mi Calm Calm - N/A   Scattered Clouds
11:55 AM 33.8 °F - 24.8 °F 70% 29.70 in 10.0 mi Calm Calm - N/A   Scattered Clouds
12:15 PM 32.0 °F - 24.8 °F 75% 29.70 in 10.0 mi Calm Calm - N/A   Mostly Cloudy
12:35 PM 32.0 °F 27.5 °F 26.6 °F 80% 29.70 in 10.0 mi NW 4.6 mph - N/A   Mostly Cloudy
12:55 PM 32.0 °F 24.2 °F 26.6 °F 80% 29.70 in 10.0 mi NNW 9.2 mph - N/A   Mostly Cloudy
1:15 PM 32.0 °F 24.2 °F 24.8 °F 75% 29.69 in 10.0 mi North 9.2 mph - N/A   Mostly Cloudy
1:35 PM 32.0 °F 25.6 °F 24.8 °F 75% 29.69 in 10.0 mi NNW 6.9 mph 10.4 mph N/A   Overcast
1:55 PM 32.0 °F 24.2 °F 24.8 °F 75% 29.68 in 10.0 mi West 9.2 mph - N/A   Overcast
2:15 PM 32.0 °F 28.7 °F 23.0 °F 69% 29.68 in 10.0 mi WNW 3.5 mph - N/A   Mostly Cloudy
2:35 PM 32.0 °F 24.8 °F 23.0 °F 69% 29.67 in 10.0 mi WNW 8.1 mph - N/A   Mostly Cloudy
2:55 PM 33.8 °F 28.6 °F 23.0 °F 65% 29.65 in 10.0 mi WNW 5.8 mph - N/A   Overcast
3:15 PM 32.0 °F 27.5 °F 21.2 °F 64% 29.65 in 10.0 mi WNW 4.6 mph - N/A   Overcast
3:35 PM 32.0 °F - 23.0 °F 69% 29.65 in 10.0 mi Calm Calm - N/A   Scattered Clouds
3:55 PM 33.8 °F 29.6 °F 21.2 °F 60% 29.65 in 10.0 mi WNW 4.6 mph - N/A   Scattered Clouds
4:15 PM 32.0 °F 25.6 °F 21.2 °F 64% 29.65 in 10.0 mi West 6.9 mph - N/A   Mostly Cloudy
4:35 PM 32.0 °F 26.4 °F 21.2 °F 64% 29.65 in 10.0 mi West 5.8 mph - N/A   Mostly Cloudy
4:55 PM 32.0 °F 28.7 °F 19.4 °F 60% 29.66 in 10.0 mi WSW 3.5 mph - N/A   Mostly Cloudy
5:15 PM 32.0 °F - 19.4 °F 60% 29.66 in 10.0 mi Calm Calm - N/A   Mostly Cloudy
5:35 PM 30.2 °F - 19.4 °F 64% 29.66 in 10.0 mi Calm Calm - N/A   Mostly Cloudy
5:55 PM 30.2 °F - 21.2 °F 69% 29.67 in 10.0 mi Calm Calm - N/A   Scattered Clouds
6:15 PM 28.4 °F - 19.4 °F 69% 29.65 in 10.0 mi Calm Calm - N/A   Clear
6:35 PM 28.4 °F 23.3 °F 19.4 °F 69% 29.67 in 10.0 mi WSW 4.6 mph - N/A   Scattered Clouds
6:55 PM 28.4 °F - 19.4 °F 69% 29.67 in 10.0 mi Calm Calm - N/A   Scattered Clouds
7:15 PM 28.4 °F - 19.4 °F 69% 29.67 in 10.0 mi Calm Calm - N/A   Mostly Cloudy
7:35 PM 26.6 °F 22.6 °F 19.4 °F 74% 29.67 in 10.0 mi ENE 3.5 mph - N/A   Mostly Cloudy
7:55 PM 28.4 °F - 19.4 °F 69% 29.66 in 10.0 mi Calm Calm - N/A   Overcast
8:15 PM 30.2 °F - 19.4 °F 64% 29.65 in 10.0 mi Calm Calm - N/A   Overcast
8:35 PM 28.4 °F - 21.2 °F 74% 29.65 in 10.0 mi Calm Calm - N/A   Overcast
8:55 PM 26.6 °F - 21.2 °F 80% 29.65 in 10.0 mi Calm Calm - N/A   Overcast
9:15 PM 28.4 °F - 19.4 °F 69% 29.64 in 10.0 mi Calm Calm - N/A   Overcast
9:35 PM 28.4 °F 23.3 °F 19.4 °F 69% 29.64 in 10.0 mi ESE 4.6 mph - N/A   Mostly Cloudy
9:55 PM 30.2 °F 26.7 °F 19.4 °F 64% 29.63 in 10.0 mi SSE 3.5 mph - N/A   Mostly Cloudy
10:15 PM 30.2 °F 26.7 °F 19.4 °F 64% 29.62 in 10.0 mi SE 3.5 mph - N/A   Mostly Cloudy
10:35 PM 30.2 °F 26.7 °F 19.4 °F 64% 29.61 in 10.0 mi SE 3.5 mph - N/A   Mostly Cloudy
10:55 PM 28.4 °F 22.2 °F 21.2 °F 74% 29.61 in 10.0 mi South 5.8 mph - N/A   Mostly Cloudy
11:15 PM 28.4 °F 22.2 °F 19.4 °F 69% 29.61 in 10.0 mi SSE 5.8 mph - N/A   Overcast
11:35 PM 28.4 °F 22.2 °F 21.2 °F 74% 29.59 in 10.0 mi SSE 5.8 mph - N/A   Overcast
11:55 PM 30.2 °F 24.3 °F 19.4 °F 64% 29.59 in 10.0 mi South 5.8 mph - N/A   Overcast